Location: Lawrence
(38.9720°N, 95.2350°W)
Time: 17:20:25
(UTC-05:00)

JAS-1B - Visible Passes

Search period start: 01 September 2015 00:00
Search period end: 11 September 2015 00:00
Orbit: 911 x 1745 km, 99.1° (Epoch: 01 September)

Date Brightness Start Highest point End Pass type
(mag) Time Alt. Az. Time Alt. Az. Time Alt. Az.
01 Sep 8.2 00:03:56 10° N 00:07:45 40° N 00:07:45 40° N visible
01 Sep 8.9 22:32:57 10° NE 22:34:44 17° NE 22:34:44 17° NE visible
02 Sep 8.4 00:23:06 10° N 00:26:59 36° NNW 00:26:59 36° NNW visible
02 Sep 8.7 22:51:27 10° NNE 22:53:57 23° NE 22:53:57 23° NE visible
03 Sep 8.7 00:42:22 10° N 00:46:12 30° NW 00:46:12 30° NW visible
03 Sep 8.5 23:10:10 10° NNE 23:13:11 29° NE 23:13:11 29° NE visible
04 Sep 9.0 01:01:47 10° NNW 01:05:26 24° NW 01:05:26 24° NW visible
04 Sep 8.4 23:29:02 10° NNE 23:32:24 35° NNE 23:32:24 35° NNE visible
05 Sep 9.3 01:21:26 10° NNW 01:24:40 18° NW 01:24:40 18° NW visible
05 Sep 8.4 23:48:01 10° NNE 23:51:38 38° N 23:51:38 38° N visible
06 Sep 9.5 01:41:30 10° NNW 01:43:54 13° NW 01:43:54 13° NW visible
06 Sep 9.2 22:17:26 10° NE 22:18:37 14° NE 22:18:37 14° NE visible
07 Sep 8.5 00:07:05 10° N 00:10:52 37° N 00:10:52 37° N visible
07 Sep 9.0 22:35:49 10° NE 22:37:51 19° NE 22:37:51 19° NE visible
08 Sep 8.7 00:26:17 10° N 00:30:06 33° NNW 00:30:06 33° NNW visible
08 Sep 8.8 22:54:26 10° NNE 22:57:05 25° NE 22:57:05 25° NE visible
09 Sep 8.9 00:45:36 10° N 00:49:20 28° NW 00:49:20 28° NW visible
09 Sep 8.7 23:13:13 10° NNE 23:16:20 30° NNE 23:16:20 30° NNE visible
10 Sep 9.2 01:05:04 10° NNW 01:08:35 22° NW 01:08:35 22° NW visible
10 Sep 8.6 23:32:08 10° NNE 23:35:34 34° NNE 23:35:34 34° NNE visible
